Find Local Weather

World > North America > United States > Wisconsin

Mellen, Wisconsin Regional Weather

Lat: 46.32N, Lon: 90.66W
Wx Zone: WIZ003
Feedback
Expires:201807181700;;673081
ASUS43 KMKX 181621
RWRWI 

WISCONSIN REGIONAL WEATHER ROUNDUP
NATIONAL WEATHER SERVICE MILWAUKEE/SULLIVAN WI
1100 AM CDT WED JUL 18 2018

NOTE: "FAIR" INDICATES FEW OR NO CLOUDS BELOW 12,000 FEET WITH NO
SIGNIFICANT WEATHER AND/OR OBSTRUCTIONS TO VISIBILITY.


WIZ003>005-009-010-017-018-181700-
NORTH CENTRAL WISCONSIN
  
CITY           SKY/WX    TMP DP  RH WIND       PRES   REMARKS
MANITOWISH WTR FAIR      72  53  51 W8        30.14F                  
ARBOR VITAE    FAIR      72  54  53 W6        30.15F                  
WOODRUFF       FAIR      72  54  53 W6        30.15F                  
RHINELANDER    FAIR      74  51  44 SW6       30.16                   
EAGLE RIVER    FAIR      70  49  46 CALM      30.14F                  
LAND O LAKES   FAIR      73  50  44 W6        30.15F                  
PHILLIPS       FAIR      73  55  53 S3        30.14F                  
TOMAHAWK       PTSUNNY   71  52  50 W3        30.15F                  
MEDFORD        FAIR      70  49  46 CALM      30.14F                  
MERRILL        FAIR      72  51  47 CALM      30.15F                  
$$
 

SKY/WX - Weather  TMP - Temperature  DP - Dewpoint  RH - Relative Humidity
WIND - Wind Direction/Speed PRES - Barometric Pressure